Texarkana, AR

1:39 AM CDT on June 27, 2017 (GMT -0500)
Texarkana Regional-Webb

Weather History for KTXK - January, 2014

Change the Weather History Date:

Tuesday, January 21, 2014

  Actual Average Record
Temperature  
Mean Temperature 40 °F 44 °F  
Max Temperature 53 °F 54 °F 77 °F (1986)
Min Temperature 26 °F 34 °F 14 °F (1984)
Degree Days  
Heating Degree Days 25 21  
Month to date heating degree days 466 454  
Since 1 July heating degree days 1630 1521  
Cooling Degree Days 0 0  
Month to date cooling degree days 0 0  
Year to date cooling degree days 0 0  
Moisture  
Dew Point 11 °F    
Average Humidity 36    
Maximum Humidity 53    
Minimum Humidity 19    
Precipitation  
Precipitation 0.00 in 0.11 in 5.30 in (1938)
Month to date precipitation 0.73 2.29  
Year to date precipitation 0.73 2.29  
Snow  
Snow 0.00 in - - ()
Month to date snowfall T  
Since 1 July snowfall 0.1  
Snow Depth 0.00 in    
Sea Level Pressure  
Sea Level Pressure 30.25 in    
Wind  
Wind Speed 9 mph (NW)    
Max Wind Speed 22 mph    
Max Gust Speed 30 mph    
Visibility 10 miles    
Events      
T = Trace of Precipitation, MM = Missing Value Source: NWS Daily Summary

Daily Weather History Graph

Daily Weather History Graph

Search for Another Location

Airport or City:

Trip Planner

Search our weather history database for the weather conditions in past years. The results will help you decide how hot, cold, wet, or windy it might be!

Date:

Astronomy

Jan. 21, 2014 Rise Set
Actual Time 7:18 AM CST 5:36 PM CST
Civil Twilight 6:51 AM CST 6:03 PM CST
Nautical Twilight 6:21 AM CST 6:33 PM CST
Astronomical Twilight 5:51 AM CST 7:03 PM CST
Moon 10:51 PM CST (1/21) 10:05 AM CST (1/21)
Length of Visible Light 11h 12m
Length of Day
10h 18m
Waning Gibbous, 74% of the Moon is Illuminated
Jan 21
Waning Gibbous
Jan 23
Last Quarter
Jan 30
New
Feb 6
First Quarter
Feb 14
Full

Hourly Weather History & Observations

Time (CST) Temp. Windchill Dew Point Humidity Pressure Visibility Wind Dir Wind Speed Gust Speed Precip Events Conditions
12:53 AM 50.0 °F - 23.0 °F 35% 30.12 in 10.0 mi North 15.0 mph 20.7 mph N/A   Clear
1:53 AM 48.9 °F - 19.0 °F 31% 30.13 in 10.0 mi NNW 12.7 mph - N/A   Clear
2:53 AM 46.9 °F - 19.9 °F 34% 30.14 in 10.0 mi NW 10.4 mph - N/A   Clear
3:53 AM 46.0 °F 39.6 °F 19.0 °F 34% 30.15 in 10.0 mi NW 15.0 mph 19.6 mph N/A   Clear
4:53 AM 45.0 °F 37.9 °F 15.1 °F 30% 30.17 in 10.0 mi NW 16.1 mph 23.0 mph N/A   Clear
5:53 AM 43.0 °F 35.7 °F 12.9 °F 30% 30.19 in 10.0 mi NNW 15.0 mph 23.0 mph N/A   Clear
6:53 AM 41.0 °F 33.5 °F 12.0 °F 31% 30.23 in 10.0 mi NW 13.8 mph - N/A   Clear
7:53 AM 39.0 °F 31.8 °F 12.0 °F 33% 30.27 in 10.0 mi NW 11.5 mph - N/A   Clear
8:53 AM 39.0 °F 31.4 °F 12.0 °F 33% 30.32 in 10.0 mi North 12.7 mph 20.7 mph N/A   Clear
9:53 AM 39.0 °F 31.0 °F 9.0 °F 29% 30.35 in 10.0 mi NNW 13.8 mph - N/A   Clear
10:53 AM 39.9 °F 33.9 °F 9.0 °F 28% 30.36 in 10.0 mi North 9.2 mph - N/A   Clear
11:53 AM 41.0 °F 33.1 °F 9.0 °F 27% 30.35 in 10.0 mi NNW 15.0 mph - N/A   Clear
12:53 PM 43.0 °F 36.8 °F 8.1 °F 24% 30.32 in 10.0 mi NW 11.5 mph 17.3 mph N/A   Clear
1:53 PM 44.1 °F 38.1 °F 8.1 °F 23% 30.28 in 10.0 mi NNW 11.5 mph 16.1 mph N/A   Clear
2:53 PM 44.1 °F 39.0 °F 6.1 °F 21% 30.28 in 10.0 mi NNW 9.2 mph 17.3 mph N/A   Clear
3:53 PM 44.1 °F 40.1 °F 6.1 °F 21% 30.26 in 10.0 mi NW 6.9 mph - N/A   Clear
4:53 PM 43.0 °F 38.8 °F 3.9 °F 20% 30.27 in 10.0 mi North 6.9 mph - N/A   Clear
5:53 PM 39.9 °F 36.7 °F 9.0 °F 28% 30.25 in 10.0 mi WNW 4.6 mph - N/A   Clear
6:53 PM 37.9 °F 35.5 °F 7.0 °F 28% 30.26 in 10.0 mi WNW 3.5 mph - N/A   Clear
7:53 PM 35.1 °F 31.0 °F 9.0 °F 34% 30.26 in 10.0 mi NW 4.6 mph - N/A   Clear
8:53 PM 28.9 °F - 14.0 °F 54% 30.26 in 10.0 mi Calm Calm - N/A   Clear
9:53 PM 30.0 °F - 9.0 °F 41% 30.25 in 10.0 mi Calm Calm - N/A   Clear
10:53 PM 30.0 °F - 9.0 °F 41% 30.25 in 10.0 mi Calm Calm - N/A   Clear
11:53 PM 28.0 °F - 12.0 °F 51% 30.24 in 10.0 mi Calm Calm - N/A   Clear